Big Piney, WY

11:26 PM MDT on August 23, 2017 (GMT -0600)
Big Piney-Marbleton

Weather History for KBPI - April, 2012

Change the Weather History Date:

Tuesday, April 24, 2012

  Actual Average Record
Temperature  
Mean Temperature 54 °F 39 °F  
Max Temperature 75 °F 55 °F 76 °F (2012)
Min Temperature 32 °F 24 °F 12 °F (2011)
Degree Days  
Heating Degree Days 12 26  
Month to date heating degree days 688  
Since 1 July heating degree days 9383  
Cooling Degree Days 0 0  
Month to date cooling degree days 0  
Year to date cooling degree days 0  
Growing Degree Days 4 (Base 50)    
Moisture  
Dew Point 30 °F    
Average Humidity 46    
Maximum Humidity 82    
Minimum Humidity 14    
Precipitation  
Precipitation 0.00 in 0.02 in 0.42 in (1999)
Month to date precipitation 0.39  
Year to date precipitation 1.49  
Sea Level Pressure  
Sea Level Pressure 29.86 in    
Wind  
Wind Speed 7 mph (NNW)    
Max Wind Speed 25 mph    
Max Gust Speed 37 mph    
Visibility 10 miles    
Events      
T = Trace of Precipitation, MM = Missing Value Source: NWS Daily Summary

Daily Weather History Graph

Daily Weather History Graph

Search for Another Location

Airport or City:

Trip Planner

Search our weather history database for the weather conditions in past years. The results will help you decide how hot, cold, wet, or windy it might be!

Date:

Astronomy

Apr. 24, 2012 Rise Set
Actual Time 6:24 AM MDT 8:13 PM MDT
Civil Twilight 5:54 AM MDT 8:43 PM MDT
Nautical Twilight 5:17 AM MDT 9:20 PM MDT
Astronomical Twilight 4:38 AM MDT 10:00 PM MDT
Moon 8:19 AM MDT 11:39 PM MDT
Length of Visible Light 14h 49m
Length of Day
13h 48m
Waxing Crescent, 10% of the Moon is Illuminated
Apr 24
Waxing Crescent
Apr 29
First Quarter
May 5
Full
May 12
Last Quarter
May 20
New

Hourly Weather History & Observations

Time (MDT) Temp. Windchill Dew Point Humidity Pressure Visibility Wind Dir Wind Speed Gust Speed Precip Events Conditions
12:53 AM 37.0 °F - 28.9 °F 73% 29.92 in 10.0 mi Calm Calm - N/A   Clear
1:53 AM 39.0 °F 36.8 °F 30.0 °F 70% 29.89 in 10.0 mi East 3.5 mph - N/A   Clear
2:53 AM 35.1 °F - 28.0 °F 76% 29.89 in 10.0 mi Calm Calm - N/A   Clear
3:53 AM 33.1 °F 30.0 °F 27.0 °F 78% 29.93 in 10.0 mi NNW 3.5 mph - N/A   Partly Cloudy
4:53 AM 36.0 °F 32.1 °F 28.9 °F 76% 29.91 in 10.0 mi NE 4.6 mph - N/A   Clear
5:53 AM 33.1 °F 30.0 °F 27.0 °F 78% 29.93 in 10.0 mi NE 3.5 mph - N/A   Clear
6:53 AM 32.0 °F 26.4 °F 27.0 °F 82% 29.94 in 10.0 mi NW 5.8 mph - N/A   Clear
7:53 AM 39.9 °F 37.8 °F 30.9 °F 70% 29.92 in 10.0 mi WNW 3.5 mph - N/A   Clear
8:53 AM 53.1 °F - 32.0 °F 45% 29.89 in 10.0 mi Calm Calm - N/A   Clear
9:53 AM 55.9 °F - 32.0 °F 40% 29.89 in 10.0 mi South 4.6 mph - N/A   Clear
10:53 AM 64.0 °F - 32.0 °F 30% 29.87 in 10.0 mi Variable 4.6 mph - N/A   Clear
11:53 AM 68.0 °F - 32.0 °F 26% 29.85 in 10.0 mi South 8.1 mph - N/A   Clear
12:43 PM 73.4 °F - 24.8 °F 16% 30.06 in 10.0 mi West 17.3 mph 23.0 mph N/A   Partly Cloudy
12:53 PM 73.0 °F - 23.0 °F 15% 29.83 in 10.0 mi West 12.7 mph 24.2 mph N/A   Clear
1:53 PM 75.0 °F - 23.0 °F 14% 29.79 in 10.0 mi WNW 13.8 mph 21.9 mph N/A   Mostly Cloudy
2:53 PM 72.0 °F - 28.0 °F 20% 29.83 in 10.0 mi NW 25.3 mph 33.4 mph N/A   Partly Cloudy
3:53 PM 73.9 °F - 28.0 °F 18% 29.79 in 10.0 mi NNW 20.7 mph 26.5 mph N/A   Clear
4:53 PM 73.9 °F - 23.0 °F 15% 29.77 in 10.0 mi WNW 19.6 mph 32.2 mph N/A   Clear
5:53 PM 68.0 °F - 30.0 °F 24% 29.80 in 10.0 mi NNW 18.4 mph 28.8 mph N/A   Partly Cloudy
6:53 PM 68.0 °F - 28.0 °F 22% 29.80 in 10.0 mi NNW 16.1 mph - N/A   Scattered Clouds
7:53 PM 55.9 °F - 35.1 °F 45% 29.84 in 10.0 mi NNW 24.2 mph 36.8 mph N/A   Scattered Clouds
8:53 PM 52.0 °F - 36.0 °F 54% 29.83 in 10.0 mi NNW 12.7 mph - N/A   Partly Cloudy
9:53 PM 51.1 °F - 35.1 °F 54% 29.83 in 10.0 mi NNW 9.2 mph - N/A   Clear
10:53 PM 48.9 °F - 33.1 °F 54% 29.81 in 10.0 mi NNE 8.1 mph - N/A   Partly Cloudy
11:53 PM 52.0 °F - 35.1 °F 53% 29.79 in 10.0 mi North 17.3 mph 26.5 mph N/A   Clear